User: anonymous   Login
Location: Unnamed
(23.5608°S, 46.6833°W)
Time: 04:44:57
(UTC-03:00)
Language:

deb Kosmos-375 - Orbit

View from above orbital plane
View from above orbital plane
View from above satellite
View from above satellite

Ground track
Ground track

The orbit data is extracted from the following two-line orbital elements,

1  4942U 70091AK  24140.87486544  .00000716  00000-0  50833-3 0  9999
2  4942  63.0891 357.2404 0856616 205.0653 150.6354 12.95008620517398
Epoch (UTC): 19 May 2024 20:59:48
Eccentricity: 0.0856616
inclination: 63.0891°
perigee height: 625 km
apogee height: 1938 km
right ascension of ascending node: 357.2404°
argument of perigee: 205.0653°
revolutions per day: 12.95008620
mean anomaly at epoch: 150.6354°
orbit number at epoch: 51739

The dashed part of the orbit path shows where the satellite is in the earth's shadow,  

DLR